Burnet, TX

12:49 PM CDT on May 27, 2017 (GMT -0500)
Burnet Municipal-Craddock

Weather History for KBMQ - February, 2014

Change the Weather History Date:

Tuesday, February 4, 2014

  Actual Average Record
Temperature  
Mean Temperature 48 °F -  
Max Temperature 60 °F 58 °F 73 °F (2008)
Min Temperature 37 °F 38 °F 17 °F (2011)
Degree Days  
Heating Degree Days 16    
Moisture  
Dew Point 39 °F    
Average Humidity 86    
Maximum Humidity 100    
Minimum Humidity 47    
Precipitation  
Precipitation 0.00 in - - ()
Sea Level Pressure  
Sea Level Pressure 29.95 in    
Wind  
Wind Speed 4 mph (WNW)    
Max Wind Speed 12 mph    
Max Gust Speed 18 mph    
Visibility 6 miles    
Events Rain    
Averages and records for this station are not official NWS values.
T = Trace of Precipitation, MM = Missing Value Source: NWS Daily Summary

Daily Weather History Graph

Daily Weather History Graph

Search for Another Location

Airport or City:

Trip Planner

Search our weather history database for the weather conditions in past years. The results will help you decide how hot, cold, wet, or windy it might be!

Date:

Astronomy

Feb. 04, 2014 Rise Set
Actual Time 7:22 AM CST 6:11 PM CST
Civil Twilight 6:57 AM CST 6:36 PM CST
Nautical Twilight 6:28 AM CST 7:05 PM CST
Astronomical Twilight 6:00 AM CST 7:33 PM CST
Moon 10:26 AM CST (2/4) 11:39 PM CST (2/4)
Length of Visible Light 11h 39m
Length of Day
10h 49m
Waxing Crescent, 29% of the Moon is Illuminated
Feb 4
Waxing Crescent
Feb 6
First Quarter
Feb 14
Full
Feb 22
Last Quarter
Mar 1
New

Hourly Weather History & Observations

Time (CST) Temp. Windchill Dew Point Humidity Pressure Visibility Wind Dir Wind Speed Gust Speed Precip Events Conditions
12:02 AM 37.9 °F 34.4 °F 37.0 °F 97% 29.95 in 2.0 mi ESE 4.6 mph - N/A   Overcast
12:32 AM 37.9 °F 34.4 °F 37.0 °F 97% 29.94 in 1.5 mi SE 4.6 mph - N/A   Overcast
12:53 AM 37.9 °F 35.5 °F 37.0 °F 97% 29.96 in 1.8 mi South 3.5 mph - 0.00 in   Overcast
1:53 AM 37.9 °F 34.4 °F 37.0 °F 97% 29.93 in 1.8 mi SE 4.6 mph - 0.00 in   Overcast
2:09 AM 37.9 °F 32.7 °F 37.0 °F 97% 29.91 in 2.0 mi SE 6.9 mph - N/A   Overcast
2:48 AM 37.4 °F 34.9 °F 37.4 °F 100% 29.91 in 3.0 mi SSE 3.5 mph - N/A   Overcast
2:53 AM 37.9 °F 34.4 °F 37.0 °F 97% 29.91 in 3.0 mi SSE 4.6 mph - N/A   Overcast
3:02 AM 37.9 °F - 37.9 °F 100% 29.91 in 2.5 mi Calm Calm - N/A   Overcast
3:37 AM 39.0 °F - 37.9 °F 96% 29.92 in 1.8 mi Calm Calm - 0.00 in Rain Light Rain
3:53 AM 39.0 °F - 37.9 °F 96% 29.94 in 2.0 mi Calm Calm - 0.00 in Rain Light Rain
4:15 AM 39.0 °F - 37.9 °F 96% 29.93 in 2.5 mi Calm Calm - 0.00 in Rain Light Rain
4:26 AM 39.0 °F - 37.9 °F 96% 29.93 in 1.5 mi Calm Calm - 0.00 in Rain Light Rain
4:37 AM 39.0 °F - 37.9 °F 96% 29.92 in 2.0 mi Calm Calm - 0.00 in Rain Light Rain
4:53 AM 39.0 °F - 37.9 °F 96% 29.94 in 3.0 mi Calm Calm - 0.00 in   Overcast
5:03 AM 39.0 °F - 37.9 °F 96% 29.93 in 2.0 mi Calm Calm - 0.00 in Rain Light Rain
5:14 AM 39.0 °F - 37.9 °F 96% 29.93 in 2.5 mi Calm Calm - 0.00 in Rain Light Rain
5:38 AM 39.0 °F - 37.9 °F 96% 29.93 in 4.0 mi Calm Calm - 0.00 in Rain Light Rain
5:53 AM 39.0 °F 36.8 °F 37.9 °F 96% 29.94 in 4.0 mi ENE 3.5 mph - 0.00 in   Overcast
6:20 AM 39.9 °F - 37.9 °F 93% 29.94 in 8.0 mi Calm Calm - N/A   Overcast
6:26 AM 39.9 °F - 37.9 °F 93% 29.94 in 8.0 mi Calm Calm - N/A   Overcast
6:42 AM 39.9 °F 37.8 °F 37.9 °F 93% 29.94 in 3.0 mi NNE 3.5 mph - N/A   Overcast
6:49 AM 39.2 °F - 37.4 °F 93% 29.94 in 2.5 mi Calm Calm - N/A   Overcast
6:53 AM 39.9 °F - 37.9 °F 93% 29.96 in 2.5 mi Calm Calm - N/A   Overcast
7:00 AM 39.9 °F - 37.9 °F 93% 29.95 in 3.0 mi Calm Calm - N/A   Overcast
7:53 AM 39.9 °F - 37.9 °F 93% 29.96 in 10.0 mi Calm Calm - N/A   Overcast
8:53 AM 41.0 °F 39.0 °F 39.0 °F 93% 29.97 in 10.0 mi NW 3.5 mph - N/A   Overcast
9:53 AM 43.0 °F 38.8 °F 39.9 °F 89% 29.98 in 10.0 mi West 6.9 mph - N/A   Overcast
10:04 AM 44.1 °F 40.8 °F 39.9 °F 85% 29.97 in 10.0 mi WNW 5.8 mph - N/A   Overcast
10:28 AM 44.1 °F 39.0 °F 39.9 °F 85% 29.97 in 10.0 mi West 9.2 mph - N/A   Overcast
10:53 AM 44.1 °F 39.5 °F 39.9 °F 85% 29.97 in 10.0 mi West 8.1 mph - N/A   Overcast
11:02 AM 45.0 °F 39.7 °F 39.9 °F 82% 29.96 in 10.0 mi WNW 10.4 mph - N/A   Overcast
11:29 AM 45.0 °F 40.1 °F 39.9 °F 82% 29.96 in 10.0 mi West 9.2 mph 18.4 mph N/A   Overcast
11:53 AM 45.0 °F 39.7 °F 39.9 °F 82% 29.96 in 10.0 mi West 10.4 mph - N/A   Overcast
12:53 PM 46.9 °F - 39.9 °F 77% 29.94 in 10.0 mi West 11.5 mph - N/A   Overcast
1:30 PM 50.0 °F - 41.0 °F 71% 29.91 in 10.0 mi West 9.2 mph - N/A   Scattered Clouds
1:53 PM 52.0 °F - 41.0 °F 66% 29.89 in 10.0 mi WSW 10.4 mph - N/A   Clear
2:53 PM 55.9 °F - 39.9 °F 55% 29.88 in 10.0 mi West 10.4 mph - N/A   Clear
3:53 PM 57.9 °F - 39.0 °F 49% 29.87 in 10.0 mi West 6.9 mph - N/A   Clear
4:53 PM 60.1 °F - 39.9 °F 47% 29.87 in 10.0 mi SW 5.8 mph - N/A   Clear
5:53 PM 57.9 °F - 41.0 °F 53% 29.91 in 10.0 mi Calm Calm - N/A   Clear
6:53 PM 51.1 °F - 42.1 °F 71% 29.93 in 10.0 mi NNE 6.9 mph - N/A   Clear
7:53 PM 46.0 °F 43.9 °F 41.0 °F 83% 29.97 in 10.0 mi NNE 4.6 mph - N/A   Clear
8:53 PM 45.0 °F 40.6 °F 39.0 °F 80% 30.03 in 10.0 mi North 8.1 mph - N/A   Clear
9:53 PM 48.0 °F - 39.9 °F 74% 30.05 in 10.0 mi NE 6.9 mph - N/A   Clear
10:53 PM 46.0 °F 42.5 °F 39.9 °F 79% 30.09 in 10.0 mi NNE 6.9 mph - N/A   Clear
11:53 PM 43.0 °F 37.7 °F 39.0 °F 86% 30.13 in 10.0 mi NE 9.2 mph - N/A   Clear